Location: Red Deer
(52.2681°N, 113.8112°W)
Time: 14:03:10
(UTC-06:00)

N. Korean satellite - Visible Passes

Search period start: 24 March 2023 00:00
Search period end: 03 April 2023 00:00
Orbit: 393 x 418 km, 97.3° (Epoch: 24 March)

Date Brightness Start Highest point End Pass type
(mag) Time Alt. Az. Time Alt. Az. Time Alt. Az.
25 Mar 9.6 06:07:50 10° ENE 06:09:18 13° E 06:10:44 10° ESE visible
27 Mar 9.9 06:02:30 10° ENE 06:03:13 11° E 06:03:56 10° ESE visible
28 Mar 8.4 06:43:18 10° NNE 06:46:08 31° E 06:48:56 10° SSE visible
30 Mar 8.8 06:36:10 10° NE 06:38:50 25° E 06:41:28 10° SSE visible
01 Apr 9.2 06:28:17 10° NE 06:30:41 20° E 06:33:04 10° SE visible
